Kosmos-2564

operational
NORAD ID: 54377 Int'l Des: 2022-161 Owner: VVKOV/IACG Country: RU Constellation: GLONASS
MEOCIRCULAR

Kosmos-2564について

説明を読み込み中...

リアルタイム位置

3D地球を読み込み中...

次回通過

高度履歴

Altitude vs Time

uPlot chart will show altitude changes over time

軌道要素

1 54377U 22161A 25298.14199337 .00000027 00000-0 00000+0 0 9999
2 54377 64.7376 200.5125 0009559 214.0055 146.0002 2.13102110 22627
Epoch: Oct 25, 2025 • Age: 29 hours

現在のステータス

高度 19110.3 km
速度 3.96 km/s
衛星直下点 -13.65°S, 128.47°W
打ち上げ日 Nov 28, 2022
運用期間 2.9 years
タイプ other

技術仕様

分類 Payload
質量 1450.00 kg
乾燥質量 1200.00 kg
総質量 1450.00 kg
長さ 4.00 m
直径 1.50 m
スパン 7.80 m
形状 Cyl + Ant + 2 Pan
製造者 RESH
バスタイプ Uragan
フェーズステータス In Orbit
所有者/国 VVKOV/IACG/RU

大規模コンステレーション

Loading constellations...